Regional Weather Roundup
Issued by NWS Sioux Falls, SD

Home | Current Version | Previous Version | Graphics & Text | Print | Product List | Glossary On
Versions: 1 2 3 4 5 6 7 8 9 10 11 12 13 14 15 16 17 18 19 20 21 22 23 24 25 26 27 28 29 30 31 32 33 34 35 36 37 38 39 40 41 42 43 44 45 46 47 48 49 50
584
ASUS43 KFSD 270410
RWRFSD

WEATHER ROUNDUP FOR SE SOUTH DAKOTA/SW MINNESOTA/NW IOWA
NATIONAL WEATHER SERVICE SIOUX FALLS SD
1100 PM CDT SUN MAR 26 2017

NOTE: "FAIR" INDICATES FEW OR NO CLOUDS BELOW 12,000 FEET WITH NO
SIGNIFICANT WEATHER AND OR OBSTRUCTIONS TO VISIBILITY.


SDZ038>040-050-052>070-270500-
SOUTHEAST SOUTH DAKOTA

CITY           SKY/WX    TMP DP  RH WIND       PRES   REMARKS
CHAMBERLAIN    CLOUDY    36  36 100 SE3       29.97S FOG
HURON          PTCLDY    38  37  97 S5        29.95S
MADISON        CLOUDY    37  37 100 CALM      29.96F
MITCHELL       CLOUDY    44  38  79 SE3       29.97F
SIOUX FALLS    CLOUDY    44  39  82 E3        29.97F
WINNER         FAIR      36  33  89 SW3       29.98R
YANKTON        CLOUDY    45  39  81 CALM      29.97S
$$

MNZ071-072-080-081-089-090-097-098-270500-
SOUTHWEST MINNESOTA

CITY           SKY/WX    TMP DP  RH WIND       PRES   REMARKS
FAIRMONT       CLOUDY    40  37  89 CALM      29.97R
JACKSON        CLOUDY    39  37  93 CALM      29.97S
LUVERNE        CLOUDY    39  36  87 CALM      29.98F FOG
MARSHALL       MOCLDY    36  34  92 W8        29.97R
MONTEVIDEO     CLOUDY    39  36  87 N3        29.97S
PIPESTONE      CLOUDY    41  36  81 CALM      29.95F
REDWOOD FALLS  CLOUDY    40  36  86 S6        29.96R
TRACY          CLOUDY    40  39  94 W5        29.96S
WINDOM         CLOUDY    39  37  93 SW3       29.96S
WORTHINGTON    CLOUDY    39  37  92 SW6       29.97F
$$

IAZ001>003-012>014-020>022-031-032-NEZ013-014-SDZ071-270500-
NORTHWEST IOWA

CITY           SKY/WX    TMP DP  RH WIND       PRES   REMARKS
CHEROKEE       CLOUDY    43  40  89 CALM      29.98R
ESTHERVILLE    CLOUDY    39  39 100 NW6       29.96F
LE MARS        CLOUDY    45  41  87 CALM      29.99R
ORANGE CITY    CLOUDY    43  39  87 CALM      29.97S
SHELDON        CLOUDY    41  41 100 CALM      29.96S
SIOUX CITY     CLOUDY    46  41  82 NE5       29.97F
SPENCER        CLOUDY    42  39  89 NW5       29.97S
STORM LAKE     CLOUDY    41  39  93 CALM      29.97R
$$

ABBREVIATIONS USED IN REMARKS
   TC - TEMPERATURE IN CELSIUS
  WCI - WIND CHILL INDEX
   HX - HEAT INDEX
  VSB - VISIBILITY





USA.gov is the U.S. government's official web portal to all federal, state and local government web resources and services.